星链-30170 (STARLINK-30170 )

导读 | 豆包AI

STARLINK-30170是美国SpaceX星链互联网星座的成员,于2023年7月24日发射入轨。星链计划旨在构建覆盖全球的低轨卫星互联网网络,该卫星继承星链典型设计,运行于近地轨道,承担为全球偏远区域、海上航空等场景提供宽带互联网接入服务的任务,是美国打造全球低轨卫星通信网络的重要组成部分。

Basic Information
目录编号:
57431
目录名称:
STARLINK-30170
国际标识:
2023-105B
轨道中心:
EARTH
卫星名称:
星链-30170
卫星全名:
星链-30170 (STARLINK-30170 )
卫星状态:
已陨落 最后检测时间 2025-06-08
发射日期:
2023-07-24 UTC
国别 :
美国 (US)
星等 :
--
Orbit Information
数据来源 国际轨道数据
星历时间: 2025-06-08T03:16:28+0800
轨道信息已过期326天
半长轴: 6585.575km
偏心率: 0.0016043
轨道倾角: 42.973°
近地点辐角 339.832°
升交点赤经 276.778°
平近点角 158.608°
近地点: 196.874km
远地点: 218.006km
周期: 88.644分钟
每日圈数: 16.244721
Detailed Information
固有亮度:
5
最大亮度:
0.3
卫星平台:
Starlink v2.0 mini
覆盖范围:
全球
运营商:
太空探索技术公司
运营商所在国:
美国
制造商(研发单位):
太空探索技术公司
制造商所在国:
美国
使用方式:
暂无
Satellite Introduction
星链(Starlink)计划是由太空探索技术公司(SpaceX)提出的一个巨型低轨卫星互联网星座项目,计划在2019年至2024年间在太空搭建由约1.2万颗卫星组成的“星链”网络,其中1584颗将部署在地球上空550千米处的近地轨道,并从2020年开始工作。该卫星仍在工作。